Location: Bushey
(51.6333°N, 0.3667°W)
Time: 21:30:08
(UTC+00:00)

IRS-1C Rocket - Pass Details

Date: 03 March 2021
Orbit: 800 x 806 km, 99.0° (Epoch: 15 April)

Event Time Altitude Azimuth Distance (km) Brightness Sun altitude
Rises 18:06:11 0° 156° (SSE) 3,306 7.1 -4.0°
Reaches altitude 10° 18:08:30 10° 155° (SSE) 2,380 6.4 -4.4°
Maximum altitude 18:13:45 75° 71° (ENE) 838 4.1 -5.2°
Drops below altitude 10° 18:19:03 10° 347° (NNW) 2,400 6.7 -6.0°
Sets 18:21:23 0° 346° (NNW) 3,336 7.5 -6.4°
